Total_Precipitation_Accumulation
1.32 1.01 1.64 1.74 1.59 1.41 1.32 1.30 1.44 1.50 1.44 1.34 1.34 1.26 1.15 0.98 0.85 0.75 0.66 0.64 0.63 0.58 0.58 0.58 0.59 0.63 0.63 0.59 0.66 0.73 0.76 0.66 0.66 0.67 0.60 0.60 0.70 0.68 0.69 0.90 1.37 1.78 1.17
0.79 0.79 1.57 1.73 1.53 1.38 1.27 1.31 1.53 1.55 1.53 1.44 1.31 1.20 1.05 0.88 0.79 0.72 0.68 0.62 0.62 0.59 0.58 0.58 0.57 0.65 0.67 0.63 0.70 0.78 0.75 0.71 0.76 0.82 0.82 0.84 0.77 0.74 0.76 0.88 1.25 1.56 1.14
0.62 0.71 1.19 1.64 1.53 1.41 1.34 1.33 1.42 1.47 1.44 1.24 1.19 1.14 1.02 0.87 0.78 0.72 0.65 0.60 0.58 0.60 0.54 0.52 0.54 0.63 0.67 0.71 0.71 0.69 0.67 0.74 0.81 0.97 1.37 1.86 1.32 0.91 0.89 0.84 1.01 1.06 0.99
0.65 0.71 0.93 1.49 1.57 1.48 1.39 1.36 1.37 1.36 1.32 1.17 1.11 1.03 0.94 0.87 0.80 0.78 0.68 0.62 0.53 0.49 0.50 0.51 0.50 0.55 0.59 0.62 0.66 0.65 0.61 0.71 0.81 1.01 1.46 1.93 1.76 1.27 1.09 1.03 1.11 0.99 0.98
0.71 0.78 1.04 1.54 1.54 1.48 1.46 1.47 1.50 1.39 1.32 1.19 1.01 0.97 0.92 0.89 0.82 0.78 0.71 0.60 0.52 0.52 0.50 0.50 0.49 0.53 0.61 0.61 0.58 0.59 0.63 0.76 0.93 0.88 1.18 1.62 2.02 1.66 1.21 1.23 1.30 1.13 1.07
0.74 0.79 1.04 1.42 1.47 1.46 1.47 1.49 1.46 1.31 1.22 1.12 0.97 0.95 0.97 0.95 0.87 0.82 0.73 0.65 0.58 0.58 0.54 0.54 0.53 0.57 0.61 0.61 0.60 0.66 0.77 0.85 0.84 0.94 1.22 1.57 2.01 1.75 1.38 1.29 1.20 1.30 1.19
0.76 0.75 0.97 1.35 1.41 1.45 1.36 1.20 1.23 1.22 1.13 1.01 0.93 0.89 0.90 0.89 0.86 0.80 0.82 0.76 0.68 0.67 0.62 0.62 0.60 0.56 0.57 0.62 0.66 0.74 0.84 0.82 0.83 1.07 1.17 1.50 1.59 1.53 1.34 1.25 1.28 1.48 1.37
0.85 0.75 0.84 1.17 1.27 1.25 1.21 1.16 1.22 1.20 1.08 0.95 0.86 0.85 0.85 0.88 0.81 0.74 0.74 0.72 0.71 0.73 0.71 0.66 0.65 0.57 0.58 0.68 0.73 0.82 0.92 0.86 0.81 0.93 0.96 1.25 1.57 1.55 1.23 1.18 1.25 1.44 1.54
1.17 0.98 0.87 0.96 1.10 1.15 1.21 1.22 1.31 1.33 1.21 1.03 0.87 0.85 0.84 0.74 0.64 0.61 0.65 0.68 0.69 0.69 0.71 0.69 0.68 0.63 0.63 0.74 0.79 0.87 0.96 0.88 0.91 0.91 0.79 1.20 1.62 1.46 1.18 1.06 1.10 1.27 1.41
1.19 1.14 1.03 0.98 1.03 1.06 1.12 1.30 1.46 1.57 1.59 1.31 0.99 0.91 0.82 0.66 0.60 0.62 0.62 0.67 0.73 0.78 0.76 0.74 0.75 0.73 0.77 0.80 0.81 0.85 0.86 0.77 0.83 0.82 0.90 1.10 1.55 1.45 1.16 1.00 0.97 0.99 1.09
0.83 0.90 0.94 0.95 1.02 0.99 0.98 1.12 1.40 1.58 1.68 1.36 0.97 0.97 0.87 0.63 0.63 0.68 0.67 0.83 0.92 0.94 0.92 0.93 0.96 0.95 0.93 0.86 0.87 0.93 0.77 0.57 0.70 0.85 0.95 1.19 1.55 1.48 1.16 0.99 0.81 0.82 0.85
0.66 0.63 0.64 0.65 0.72 0.79 0.82 1.07 1.36 1.40 1.48 1.19 1.00 1.02 0.98 1.02 0.96 0.74 0.73 0.95 1.10 1.16 1.07 1.05 1.11 1.04 0.90 0.75 0.75 0.76 0.62 0.59 0.68 0.77 0.85 1.27 1.61 1.50 1.20 0.97 0.77 0.75 0.75
0.50 0.48 0.46 0.48 0.49 0.59 0.81 1.08 1.30 1.36 1.37 1.38 1.40 1.25 1.23 1.18 0.98 0.80 0.77 0.83 0.91 1.00 0.96 1.04 1.07 0.93 0.84 0.73 0.70 0.63 0.56 0.68 0.85 0.80 0.94 1.31 1.62 1.53 1.32 1.13 0.89 0.82 0.81
0.52 0.51 0.44 0.36 0.37 0.47 0.62 0.83 1.10 1.17 1.21 1.27 1.26 1.06 1.13 1.14 0.95 0.90 0.99 1.02 1.00 0.99 1.13 1.17 1.15 1.11 0.92 0.74 0.72 0.75 0.70 0.69 0.85 0.93 1.07 1.18 1.53 1.67 1.47 1.29 1.10 1.01 0.93
0.60 0.69 0.65 0.49 0.43 0.48 0.53 0.56 0.68 0.78 0.88 1.15 1.22 0.96 0.94 0.95 0.99 1.02 0.94 1.09 1.16 1.16 1.17 1.17 1.09 1.04 1.03 0.91 0.91 0.96 0.94 0.78 0.82 0.90 1.02 1.01 1.25 1.65 1.73 1.54 1.39 1.19 1.06
0.45 0.56 0.62 0.60 0.61 0.60 0.52 0.43 0.42 0.47 0.60 0.74 0.77 0.72 0.76 0.78 0.88 1.05 1.00 1.00 1.08 1.26 1.32 1.26 1.16 1.19 1.18 1.01 1.03 1.11 1.06 0.96 0.96 0.99 1.09 0.95 0.84 1.03 1.42 1.64 1.62 1.46 1.25
0.36 0.38 0.46 0.53 0.59 0.64 0.67 0.62 0.49 0.49 0.55 0.56 0.57 0.62 0.69 0.69 0.82 0.99 0.96 0.87 0.87 1.04 1.23 1.37 1.39 1.35 1.21 1.10 1.11 1.13 1.05 1.04 1.02 1.15 1.17 1.12 0.91 0.73 0.92 1.21 1.44 1.50 1.47
0.35 0.31 0.35 0.38 0.46 0.56 0.67 0.73 0.68 0.64 0.59 0.53 0.50 0.47 0.50 0.52 0.61 0.81 0.89 0.81 0.82 1.00 1.23 1.43 1.54 1.56 1.42 1.36 1.40 1.31 1.15 1.10 1.07 1.19 1.21 1.23 1.21 0.96 0.82 0.81 0.95 1.19 1.37
0.33 0.30 0.29 0.30 0.35 0.43 0.53 0.60 0.60 0.59 0.54 0.53 0.52 0.41 0.39 0.41 0.53 0.74 0.93 0.98 0.98 1.10 1.24 1.28 1.50 1.60 1.67 1.58 1.45 1.35 1.25 1.23 1.19 1.15 1.29 1.26 1.26 1.19 1.02 0.74 0.65 0.73 0.96
0.32 0.31 0.29 0.29 0.30 0.33 0.36 0.45 0.49 0.46 0.45 0.50 0.49 0.48 0.51 0.58 0.65 0.85 1.08 1.18 1.30 1.34 1.41 1.57 1.86 1.87 1.76 1.75 1.61 1.43 1.28 1.27 1.30 1.35 1.33 1.29 1.34 1.22 1.07 0.90 0.76 0.54 0.63
0.26 0.25 0.24 0.28 0.29 0.27 0.25 0.30 0.35 0.35 0.44 0.52 0.59 0.64 0.69 0.72 0.80 1.03 1.24 1.48 1.62 1.52 1.54 1.76 2.02 2.19 2.03 1.89 1.95 1.84 1.65 1.47 1.42 1.40 1.38 1.40 1.41 1.34 1.22 1.17 1.05 0.88 0.72
0.13 0.16 0.19 0.19 0.20 0.19 0.19 0.24 0.32 0.39 0.45 0.58 0.74 0.85 0.87 0.86 0.91 0.97 1.18 1.39 1.48 1.55 1.60 1.73 1.97 2.31 2.17 1.95 2.11 2.45 2.24 2.00 1.58 1.29 1.42 1.48 1.50 1.42 1.30 1.16 1.13 1.07 0.99
0.11 0.12 0.14 0.16 0.17 0.17 0.23 0.42 0.69 0.94 1.02 1.04 1.06 1.20 1.29 1.25 1.20 1.18 1.21 1.36 1.46 1.60 1.68 1.73 1.77 2.07 2.21 2.08 2.09 2.57 2.49 2.26 2.10 1.63 1.32 1.39 1.48 1.54 1.50 1.40 1.27 1.20 1.12
0.12 0.14 0.15 0.15 0.18 0.21 0.36 0.69 1.08 1.40 1.50 1.50 1.62 1.67 1.73 1.66 1.51 1.49 1.49 1.59 1.56 1.54 1.56 1.58 1.57 1.78 2.16 2.25 2.11 1.97 1.94 2.00 2.30 2.03 1.51 1.36 1.38 1.40 1.50 1.40 1.43 1.43 1.43
0.18 0.21 0.23 0.27 0.37 0.52 0.66 0.83 1.14 1.33 1.44 1.59 1.75 1.90 2.03 2.13 2.09 2.01 1.94 1.80 1.64 1.55 1.58 1.63 1.63 1.72 1.86 2.02 1.99 1.88 1.87 1.82 1.69 1.85 1.82 1.59 1.39 1.29 1.37 1.42 1.47 1.49 1.57
0.31 0.34 0.37 0.47 0.54 0.60 0.70 0.84 0.99 1.08 1.24 1.44 1.59 1.77 1.93 2.03 2.05 1.99 1.86 1.65 1.49 1.43 1.50 1.63 1.67 1.72 1.71 1.79 1.76 1.69 1.70 1.68 1.59 1.72 1.69 1.70 1.68 1.33 1.22 1.27 1.35 1.41 1.40